This demonstration page uses our WeatherBlox Daily Observations layout. Learn more.

Left ArrowRight Arrow

39.08367, -84.50855

Hourly Observations for June 19, 2020

Temp ( °F °C ) Dew Point ( °F °C ) Humidity (%) Winds ( mph kmh ) Pressure ( in mb ) Visibility ( mi km ) Precip ( " mm )
12:03 am 00:03 Clear with Mist and Fog 65 18.3 64 17.8 97 97 Calm 30.02 1017 3 4.82802 0 0
12:07 am 00:07 Clear with Mist and Fog 65 18.3 63 17.2 93 93 Calm 30.03 1017 1.5 2.41401 0 0
12:15 am 00:15 Clear with Fog 63 17.2 62 16.7 97 97 SSE 3 6 30.03 1017 0.5 0.80467 0 0
12:20 am 00:20 Clear with Mist and Fog 63 17.2 62 16.7 97 97 SSE 5 7 30.02 1017 2.5 4.02335 0 0
12:27 am 00:27 Clear 64 17.8 63 17.2 96 96 SE 3 6 30.02 1017 7 11.26538 0 0
12:53 am 00:53 Mostly Cloudy with Mist and Fog 65 18.3 64 17.8 97 97 Calm 30.02 1017 6 9.65604 0 0
1:41 am 01:41 Mostly Cloudy with Mist and Fog 64 17.8 63 17.2 96 96 Calm 30.02 1017 0.75 1.207005 0 0
1:53 am 01:53 Mostly Cloudy with Fog 64 17.8 63 17.2 96 96 Calm 30.02 1017 0.5 0.80467 0 0
2:06 am 02:06 Mostly Cloudy with Mist and Fog 64 17.8 63 17.2 96 96 Calm 30.02 1017 2 3.21868 0 0
2:14 am 02:14 Cloudy with Mist and Fog 65 18.3 64 17.8 97 97 Calm 30.02 1017 1.75 2.816345 0 0
2:23 am 02:23 Cloudy with Fog 64 17.8 63 17.2 96 96 Calm 30.02 1017 0.5 0.80467 0 0
2:34 am 02:34 Mostly Cloudy with Mist and Fog 63 17.2 62 16.7 97 97 SSW 3 6 30.02 1017 1.5 2.41401 0 0
2:46 am 02:46 Partly Cloudy with Mist and Fog 64 17.8 63 17.2 96 96 Calm 30.02 1017 2 3.21868 0 0
2:53 am 02:53 Mostly Clear with Mist and Fog 63 17.2 63 17.2 100 100 Calm 30.02 1017 2.5 4.02335 0 0
3:03 am 03:03 Mostly Clear with Mist and Fog 64 17.8 63 17.2 96 96 Calm 30.02 1017 5 8.0467 0 0
3:53 am 03:53 Mostly Cloudy with Mist and Fog 65 18.3 63 17.2 93 93 Calm 30.03 1017 5 8.0467 0 0
4:02 am 04:02 Mostly Cloudy with Mist and Fog 64 17.8 63 17.2 96 96 Calm 30.03 1017 1.75 2.816345 0 0
4:12 am 04:12 Mostly Cloudy with Mist and Fog 63 17.2 63 17.2 100 100 Calm 30.03 1017 3 4.82802 0 0
4:39 am 04:39 Mostly Cloudy with Mist and Fog 64 17.8 63 17.2 96 96 Calm 30.03 1017 1.75 2.816345 0 0
4:49 am 04:49 Mostly Cloudy with Mist and Fog 64 18 63 17 94 94 Calm 30.03 1017 3 4.82802 0 0
4:53 am 04:53 Mostly Cloudy with Mist and Fog 65 18.3 64 17.8 97 97 Calm 30.04 1017 4 6.43736 0 0
5:53 am 05:53 Mostly Clear with Mist and Fog 65 18.3 63 17.2 93 93 Calm 30.05 1018 6 9.65604 0 0
6:53 am 06:53 Partly Cloudy with Mist and Fog 64 17.8 63 17.2 96 96 Calm 30.04 1017 5 8.0467 0 0
7:53 am 07:53 Partly Cloudy with Mist and Fog 66 18.9 64 17.8 93 93 SSW 6 9 30.05 1018 5 8.0467 0 0
8:53 am 08:53 Sunny 69 20.6 65 18.3 87 87 S 6 9 30.07 1018 10 16.0934 0 0
9:53 am 09:53 Sunny 73 22.8 67 19.4 81 81 S 5 7 30.06 1018 10 16.0934 0 0
10:53 am 10:53 Sunny 77 25 66 18.9 69 69 VRB 3 6 30.06 1018 10 16.0934 0 0
11:53 am 11:53 Sunny 80 26.7 65 18.3 60 60 Calm 30.06 1018 10 16.0934 0 0
12:26 pm 12:26 Partly Cloudy 81 27.2 65 18.3 58 58 Calm 30.04 1017 10 16.0934 0 0
12:53 pm 12:53 Partly Cloudy 83 28.3 66 18.9 57 57 SW 6 9 30.05 1018 10 16.0934 0 0
1:53 pm 13:53 Cloudy 82 27.8 62 16.7 51 51 SW 5 7 30.04 1017 10 16.0934 0 0
2:53 pm 14:53 Partly Cloudy 86 30 61 16.1 43 43 VRB 6 9 30.02 1017 10 16.0934 0 0
3:53 pm 15:53 Sunny 88 31.1 60 15.6 39 39 NNW 7 11 30 1016 10 16.0934 0 0
4:53 pm 16:53 Partly Cloudy 88 31.1 59 15 38 38 VRB 5 7 29.99 1016 10 16.0934 0 0
5:53 pm 17:53 Partly Cloudy 88 31.1 59 15 38 38 W 8 13 29.98 1015 10 16.0934 0 0
6:53 pm 18:53 Mostly Sunny 86 30 57 13.9 37 37 WNW 5 7 29.98 1015 10 16.0934 0 0
7:53 pm 19:53 Mostly Sunny 87 30.6 59 15 39 39 N 3 6 29.98 1015 10 16.0934 0 0
8:53 pm 20:53 Sunny 76 24.4 66 18.9 72 72 Calm 30 1016 10 16.0934 0 0
9:53 pm 21:53 Clear 73 22.8 64 17.8 74 74 Calm 30.02 1017 10 16.0934 0 0
10:53 pm 22:53 Clear 70 21.1 63 17.2 79 79 Calm 30.03 1017 10 16.0934 0 0
11:53 pm 23:53 Clear 68 20 64 17.8 87 87 NE 3 6 30.03 1017 10 16.0934 0 0

Powered by AerisWeather